Track ORBCOMM FM112 now! 10-day predictions ORBCOMM FM112 is classified as:
1 41184U 15081F 24325.75897019 .00001940 00000-0 45974-3 0 9991 2 41184 46.9984 99.2495 0001766 192.2171 167.8672 14.57466656475251